星链-30529 (STARLINK-30529 )

导读 | 星芒AI

STARLINK-30529 是 SpaceX Starlink 卫星互联网项目中的一颗低轨通信卫星。该卫星属于 Starlink 任务的第 27 批部署,于 2023 年发射,旨在为全球用户提供高速、低延迟的互联网服务。它运行在约 550 公里的轨道高度,与其他 Starlink 卫星协同工作,构建覆盖全球的卫星网络。该系统特别关注偏远和网络基础设施薄弱地区的连接需求。STARLINK-30529 采用先进推进和通信技术,支持自动避撞和高效数据传输,是 SpaceX 扩展全球宽带覆盖计划的重要组成部分。

基本信息
目录编号:
58047
目录名称:
STARLINK-30529
国际标识:
2023-156V
轨道中心:
EARTH
卫星名称:
星链-30529
卫星全名:
星链-30529 (STARLINK-30529 )
卫星状态:
在轨 (已飞行802 天)
发射日期:
2023-10-09 UTC
国别 :
美国 (US)
星等 :
--
轨道信息
数据来源 国际轨道数据
星历时间: 2025-12-19T14:08:34+0800
10小时前
查看轨道信息
半长轴: 6853.379km
偏心率: 0.0001539
轨道倾角: 53.159°
近地点辐角 89.973°
升交点赤经 182.090°
平近点角 270.145°
近地点: 474.187km
远地点: 476.297km
周期: 94.106分钟
每日圈数: 15.30191
详细信息
固有亮度:
5
最大亮度:
0.3
卫星平台:
Starlink v2.0 mini
覆盖范围:
全球
运营商:
太空探索技术公司
运营商所在国:
美国
制造商(研发单位):
太空探索技术公司
制造商所在国:
美国
使用方式:
暂无
卫星简介
星链(Starlink)计划是由太空探索技术公司(SpaceX)提出的一个巨型低轨卫星互联网星座项目,计划在2019年至2024年间在太空搭建由约1.2万颗卫星组成的“星链”网络,其中1584颗将部署在地球上空550千米处的近地轨道,并从2020年开始工作。该卫星仍在工作。
2D轨道图
3D轨道图
轨道高度分析图
轨道倾角分析图
轨道综合分析图
查看轨道综合分析图